EHI
0 0 0 0 0 0 0 0 0 0 0 0 0 0 0 0 0 0 0 0 0 0 0 0 0 0 0 0 0 0 0 0 0 0 0 0 0 0 0 0 0 0 0
0 0 0 0 0 0 0 0 0 0 0 0 0 0 0 0 0 0 0 0 0 0 0 0 0 0 0 0 0 0 0 0 0 0 0 0 0 0 0 0 0 0 0
0 0 0 0 0 0 0 0 0 0 0 0 0 0 0 0 0 0 0 0 0 0 0 0 0 0 0 0 0 0 0 0 0 0 0 0 0 0 0 0 0 0 0
0 0 0 0 0 0 0 0 0 0 0 0 0 0 0 0 0 0 0 0 0 0 0 0 0 0 0 0 0 0 0 0 0 0 0 0 0 0 0 0 0 0 0
0 0 0 0 0 0 0 0 0 0 0 0 0 0 0 0 0 0 0 0 0 0 0 0 0 0 0 0 0 0 0 0 0 0 0 0 0 0 0 0 0 0 0
0 0 0 0 0 0 0 0 0 0 0 0 0 0 0 0 0 0 0 0 0 0 0 0 0 0 0 0 0 0 0 0 0 0 0 0 0 0 0 0 0 0 0
0 0 0 0 0 0 0 0 0 0 0 0 0 0 0 0 0 0 0 0 0 0 0 0 0 0 0 0 0 0 0 0 0 0 0 0 0 0 0 0 0 0 0
0 0 0 0 0 0 0 0 0 0 0 0 0 0 0 0 0 0 0 0 0 0 0 0 0 0 0 0 0 0 0 0 0 0 0 0 0 0 0 0 0 0 0
0 0 0 0 0 0 0 0 0 0 0 0 0 0 0 0 0 0 0 0 0 0 0 0 0 0 0 0 0 0 0 0 0 0 0 0 0 0 0 0 0 0 0
0 0 0 0 0 0 0 0 0 0 0 0 0 0 0 0 0 0 0 0 0 0 0 0 0 0 0 0 0 0 0 0 0 0 0 0 0 0 0 0 0 0 0
0 0 0 0 0 0 0 0 0 0 0 0 0 0 0 0 0 0 0 0 0 0 0 0 0 0 0 0 0 0 0 0 0 0 0 0 0 0 0 0 0 0 0
0 0 0 0 0 0 0 0 0 0 0 0 0 0 0 0 0 0 0 0 0 0 0 0 0 0 0 0 0 0 0 0 0 0 0 0 0 0 0 0 0 0 0
0 0 0 0 0 0 0 0 0 0 0 0 0 0 0 0 0 0 0 0 0 0 0 0 0 0 0 0 0 0 0 0 0 0 0 0 0 0 0 0 0 0 0
0 0 0 0 0 0 0 0 0 0 0 0 0 0 0 0 0 0 0 0 0 0 0 0 0 0 0 0 0 0 0 0 0 0 0 0 0 0 0 0 0 0 0
0 0 0 0 0 0 0 0 0 0 0 0 0 0 0 0 0 0 0 0 0 0 0 0 0 0 0 0 0 0 0 0 0 0 0 0 0 0 0 0 0 0 0
0 0 0 0 0 0 0 0 0 0 0 0 0 0 0 0 0 0 0 0 0 0 0 0 0 0 0 0 0 0 0 0 0 0 0 0 0 0 0 0 0 0 0
0 0 0 0 0 0 0 0 0 0 0 0 0 0 0 0 0 0 0 0 0 0 0 0 0 0 0 0 0 0 0 0 0 0 0 0 0 0 0 0 0 0 0
0 0 0 0 0 0 0 0 0 0 0 0 0 0 0 0 0 0 0 0 0 0 0 0 0 0 0 0 0 0 0 0 0 0 0 0 0 0 0 0 0 0 0
0 0 0 0 0 0 0 0 0 0 0 0 0 0 0 0 0 0 0 0 0 0 0 0 0 0 0 0 0 0 0 0 0 0 0 0 0 0 0 0 0 0 0
0 0 0 0 0 0 0 0 0 0 0 0 0 0 0 0 0 0 0 0 0 0 0 0 0 0 0 0 0 0 0 0 0 0 0 0 0 0 0 0 0 0 0
0 0 0 0 0 0 0 0 0 0 0 0 0 0 0 0 0 0 0 0 0 0 0 0 0 0 0 0 0 0 0 0 0 0 0 0 0 0 0 0 0 0 0
0 0 0 0 0 0 0 0 0 0 0 0 0 0 0 0 0 0 0 0 0 0 0 0 0 0 0 0 0 0 0 0 0 0 0 0 0 0 0 0 0 0 0
0 0 0 0 0 0 0 0 0 0 0 0 0 0 0 0 0 0 0 0 0 0 0 0 0 0 0 0 0 0 0 0 0 0 0 0 0 0 0 0 0 0 0
0 0 0 0 0 0 0 0 0 0 0 0 0 0 0 0 0 0 0 0 0 0 0 0 0 0 0 0 0 0 0 0 0 0 0 0 0 0 0 0 0 0 0
0 0 0 0 0 0 0 0 0 0 0 0 0 0 0 0 0 0 0 0 0 0 0 0 0 0 0 0 0 0 0 0 0 0 0 0 0 0 0 0 0 0 0
0 0 0 0 0 0 0 0 0 0 0 0 0 0 0 0 0 0 0 0 0 0 0 0 0 0 0 0 0 0 0 0 0 0 0 0 0 0 0 0 0 0 0
Wind_Speed
5 4 3 3 4 3 3 4 4 4 4 4 4 4 4 4 4 4 3 10 11 10 10 10 10 10 10 9 9 9 9 9 9 10 11 11 12 12 12 12 12 12 11
6 6 5 4 4 4 4 4 4 4 3 3 4 4 4 4 4 4 4 5 10 10 10 10 10 10 9 9 9 8 8 8 9 9 10 11 11 12 12 12 12 12 12
7 7 6 5 4 5 5 5 5 4 4 4 4 3 3 3 4 4 4 3 4 7 10 10 10 10 9 9 9 8 7 7 7 8 9 10 10 11 12 12 12 12 12
9 7 6 6 5 5 5 5 4 4 3 3 3 2 2 2 3 3 3 3 3 3 6 10 9 9 9 9 8 7 6 6 6 7 7 8 9 10 11 12 12 12 12
11 8 7 6 7 6 5 5 3 3 3 3 3 3 2 2 2 3 3 3 3 3 3 6 8 8 7 7 7 7 6 5 5 6 6 7 8 10 11 12 13 13 12
11 9 7 8 8 7 5 4 4 3 3 4 4 4 3 2 2 2 2 2 3 3 3 4 4 4 7 6 7 6 6 5 5 6 7 8 9 10 11 13 14 14 14
12 11 8 9 9 8 8 8 5 5 3 3 4 3 3 3 2 1 2 2 2 3 3 3 2 2 3 6 7 7 6 6 6 7 9 10 11 12 13 14 14 15 15
12 11 12 11 10 8 8 7 6 5 3 3 4 4 2 1 1 1 1 2 3 2 2 3 3 2 2 2 4 6 7 8 9 10 11 12 13 14 15 16 16 16 16
13 12 13 12 11 11 10 9 8 8 5 3 2 5 5 5 2 0 0 1 2 2 1 1 2 2 2 2 2 5 7 9 10 12 14 14 15 16 17 18 18 18 17
13 12 13 13 13 10 11 11 9 5 7 5 2 1 2 4 5 2 1 1 2 2 2 1 2 2 2 2 4 7 9 10 12 14 15 17 18 19 19 20 19 19 18
11 11 12 11 12 10 11 11 9 7 5 6 6 4 3 2 2 4 3 2 2 2 2 2 2 2 2 2 2 6 10 12 14 16 18 19 20 21 21 20 20 19 19
7 10 11 11 11 9 11 11 10 10 6 6 5 4 5 5 4 4 4 3 2 2 1 2 3 3 2 2 3 9 11 13 16 18 19 20 21 20 20 20 20 20 21
8 13 12 11 10 9 9 9 9 9 8 9 6 3 3 3 4 4 4 3 1 1 2 1 2 2 2 1 2 11 11 15 17 19 20 20 20 19 20 20 21 21 22
12 12 12 11 10 10 10 9 7 7 6 7 7 6 4 3 3 3 4 4 2 2 2 3 1 2 1 1 4 10 6 15 18 19 20 20 20 20 20 21 21 22 22
6 10 11 11 10 11 11 11 8 8 8 6 7 6 4 3 3 2 3 4 5 3 3 3 2 2 3 2 6 3 3 13 18 19 19 20 20 20 21 22 22 22 22
7 10 11 11 11 11 11 10 9 9 9 7 6 7 4 3 3 2 3 2 2 4 4 3 4 3 3 3 8 4 5 16 17 19 20 20 21 21 21 22 22 23 23
8 10 11 11 12 12 11 10 10 10 10 8 6 6 5 4 3 2 2 2 2 3 4 3 3 3 3 4 5 5 5 6 8 18 21 21 21 21 21 22 22 22 23
8 9 10 10 10 11 11 12 12 10 10 8 6 5 4 3 3 2 2 3 3 4 4 5 3 3 5 5 5 6 7 7 6 17 21 21 21 21 21 21 21 22 23
9 9 10 10 10 10 11 11 12 10 9 7 6 4 3 3 2 2 3 3 3 4 4 4 4 3 4 4 4 6 7 7 8 12 18 19 20 20 20 21 23 24 25
10 10 10 10 10 11 12 12 12 11 10 8 6 5 3 1 2 3 4 5 4 4 4 4 4 4 4 5 4 5 6 5 7 9 13 14 16 19 22 24 25 25 24
12 12 13 13 12 11 11 13 12 11 9 7 5 4 2 1 5 5 5 5 5 4 4 4 4 4 4 4 4 4 8 6 7 8 6 5 8 9 11 18 21 23 24
13 13 13 13 12 10 18 19 13 10 8 6 4 3 1 2 3 5 8 8 7 5 5 4 4 6 6 5 5 7 7 8 6 3 4 8 7 10 9 7 18 25 25
13 13 12 13 14 16 19 18 16 9 7 5 4 2 1 2 3 3 6 9 10 13 13 7 6 6 6 6 6 8 8 9 10 6 8 12 7 11 9 11 23 26 27
11 11 12 12 12 13 17 16 14 8 6 5 3 2 0 2 4 6 5 5 5 6 8 6 6 8 8 8 8 9 9 8 7 7 6 9 8 9 10 8 20 26 27
11 10 10 10 10 11 14 13 10 5 4 4 2 0 2 3 9 11 5 3 5 5 10 15 16 14 17 19 16 7 5 6 9 7 4 6 5 6 8 10 12 21 22
9 9 9 8 8 6 9 10 9 3 3 2 0 1 4 7 10 11 4 3 5 6 6 7 8 10 10 12 15 6 3 5 7 7 4 4 5 5 8 6 6 7 11
Wind_Direction
167 162 152 139 132 126 127 122 112 103 92 84 85 98 101 91 80 64 62 87 88 88 85 81 75 71 68 64 61 57 49 41 36 32 29 27 24 19 16 14 11 7 2
170 169 165 155 146 140 134 129 125 114 100 95 89 95 108 106 93 82 63 75 88 90 89 83 74 64 58 52 50 50 46 41 35 31 28 25 21 16 13 9 6 2 359
174 174 173 166 155 140 129 118 110 102 101 94 88 94 110 115 107 95 81 64 64 77 90 84 73 63 55 47 39 35 36 37 31 28 24 20 16 10 6 2 359 354 350
178 174 174 169 153 142 137 132 125 102 96 102 97 82 99 116 113 103 87 77 65 57 76 85 71 60 54 45 34 26 26 28 25 21 15 10 7 2 358 353 349 345 340
181 176 174 163 152 146 145 143 123 127 126 122 110 84 81 109 122 111 100 86 78 75 59 71 61 52 47 39 26 16 15 14 11 5 358 353 351 350 347 343 339 334 330
181 173 165 161 156 151 152 144 128 107 116 129 106 79 60 76 94 110 117 99 91 88 76 64 44 25 27 24 11 359 352 347 346 343 337 332 331 333 332 331 328 326 322
179 173 166 165 167 167 165 150 128 122 124 148 110 81 45 49 79 85 119 120 109 100 91 76 55 34 0 3 354 343 336 330 328 325 321 317 318 320 320 319 319 316 313
180 179 170 172 173 161 157 159 145 135 137 172 139 127 121 351 359 52 115 142 133 113 97 79 54 37 19 7 347 355 342 331 322 317 312 311 312 312 312 311 311 309 306
183 183 177 172 173 169 173 175 163 150 149 171 186 151 154 195 207 303 45 143 148 134 108 83 71 53 54 43 4 358 0 342 324 316 314 313 311 310 308 308 307 304 303
185 183 177 176 176 176 176 178 173 160 143 152 152 112 126 145 149 176 262 230 201 188 183 146 122 97 81 53 28 11 359 342 328 322 317 313 309 307 306 305 303 302 303
186 183 179 179 180 179 177 174 170 165 154 154 156 150 129 83 114 145 188 219 242 225 214 195 176 149 109 63 12 352 351 337 327 319 312 308 305 303 303 303 304 303 301
185 186 182 183 181 179 177 175 172 170 160 151 154 154 154 157 171 158 160 180 215 255 248 213 184 172 151 73 1 351 345 332 322 314 309 305 303 304 305 305 303 300 297
189 192 186 185 182 177 171 164 165 167 160 155 155 150 143 141 140 139 134 145 187 291 302 248 193 184 158 92 320 342 339 326 317 311 307 305 305 307 305 301 298 297 296
199 188 182 179 175 167 164 159 155 153 147 145 142 134 130 127 126 134 138 133 148 281 288 265 224 201 206 261 316 338 328 318 312 307 306 307 306 303 300 298 296 295 293
181 174 173 167 164 162 160 155 151 146 140 133 131 125 119 113 110 115 119 134 155 203 254 257 252 223 231 250 304 302 281 306 308 308 306 303 300 298 297 295 293 292 291
166 163 165 160 158 157 156 149 141 138 131 124 123 122 111 109 117 116 122 136 162 178 226 243 239 243 256 280 296 306 289 306 310 305 300 300 298 296 294 293 292 291 290
157 162 162 159 157 155 153 144 138 136 129 121 118 121 124 128 138 134 123 151 185 180 222 252 249 253 261 271 284 286 277 274 280 297 300 298 296 295 295 294 292 290 287
147 149 148 150 150 149 146 139 133 125 122 121 116 120 132 138 149 142 158 193 209 208 215 247 249 249 253 261 264 274 287 288 279 294 298 298 298 298 296 293 291 290 289
136 137 141 142 141 136 129 122 117 110 106 106 111 122 128 137 166 175 197 213 226 228 216 235 251 242 254 260 269 271 273 274 281 290 298 298 296 295 294 295 295 294 291
128 127 124 122 121 118 113 109 105 101 97 93 91 90 88 120 217 222 224 224 228 236 231 238 252 254 254 255 254 271 288 271 282 289 288 288 289 294 294 293 292 290 289
112 111 110 109 108 106 107 107 104 103 101 97 87 76 60 283 249 232 224 225 223 232 240 246 259 265 264 264 265 270 293 293 280 272 272 267 276 277 281 285 289 287 285
103 105 108 108 104 103 109 107 105 100 99 96 84 59 350 296 297 295 283 274 244 229 228 231 249 264 272 266 270 282 292 300 296 263 274 283 275 279 277 268 281 285 286
101 103 104 103 104 109 109 106 103 102 101 98 97 82 35 5 4 316 301 298 297 294 287 278 278 275 276 273 273 278 276 277 283 285 290 287 274 276 275 276 284 285 287
99 100 100 100 101 105 106 103 102 101 104 108 110 115 339 310 300 287 260 262 266 276 283 282 259 261 263 265 258 274 284 287 278 274 266 277 279 274 277 270 280 282 284
96 96 98 100 101 105 107 109 111 111 105 107 107 115 286 278 298 305 299 276 275 273 291 295 296 298 302 306 306 303 297 297 295 288 249 258 274 280 279 272 270 277 281
94 94 90 88 94 102 122 127 127 111 110 104 76 303 313 309 306 311 307 294 293 283 279 293 302 304 298 294 299 291 270 277 286 288 248 251 276 301 296 266 252 264 275